• In Belarus
  • List of Countries
  • For 7 days
  • Water Temperature
  • Satellite Maps
  • Weather Map
  • Weather Widgets
  • user-avatar
    Login

    Hourly Weather Spiez

    Today, 17 December, Sunday

    Time Temperature Precipitation Wind Pressure Humidity
    00:00 -4°C° 0.3 mm 2 mps 702 mmHg 94%
    01:00 -3°C° 0 mm 2 mps 702 mmHg 95%
    02:00 -3°C° 0.4 mm 2 mps 703 mmHg 95%
    03:00 -3°C° 0.4 mm 2 mps 703 mmHg 95%
    04:00 -4°C° 0.4 mm 2 mps 703 mmHg 95%
    05:00 -4°C° 0.2 mm 2 mps 703 mmHg 95%
    06:00 -5°C° 0.2 mm 2 mps 704 mmHg 94%
    07:00 -5°C° 0 mm 2 mps 704 mmHg 95%
    08:00 -4°C° 0 mm 2 mps 704 mmHg 93%
    09:00 -4°C° 0 mm 2 mps 704 mmHg 92%
    10:00 -4°C° 0 mm 2 mps 705 mmHg 90%
    11:00 -3°C° 0 mm 2 mps 705 mmHg 88%
    12:00 -2°C° 0 mm 2 mps 705 mmHg 85%
    13:00 -1°C° 0 mm 2 mps 705 mmHg 82%
    14:00 0°C° 0.1 mm 1 mps 705 mmHg 85%
    15:00 0°C° 0.1 mm 1 mps 706 mmHg 87%
    16:00 -1°C° 0.1 mm 1 mps 706 mmHg 90%
    17:00 -2°C° 0 mm 1 mps 706 mmHg 90%
    18:00 -4°C° 0 mm 1 mps 706 mmHg 91%
    19:00 -6°C° 0 mm 1 mps 707 mmHg 91%
    20:00 -8°C° 0 mm 2 mps 707 mmHg 90%
    21:00 -8°C° 0 mm 2 mps 707 mmHg 89%
    22:00 -8°C° 0 mm 2 mps 708 mmHg 88%
    23:00 -7°C° 0 mm 2 mps 708 mmHg 87%

    Tomorrow, 18 December, Monday

    Time Temperature Precipitation Wind Pressure Humidity
    00:00 -7°C° 0 mm 2 mps 708 mmHg 85%
    01:00 -6°C° 0 mm 2 mps 708 mmHg 83%
    02:00 -5°C° 0 mm 2 mps 708 mmHg 82%
    03:00 -5°C° 0 mm 2 mps 707 mmHg 81%
    04:00 -4°C° 0 mm 2 mps 707 mmHg 79%
    05:00 -4°C° 0.2 mm 2 mps 706 mmHg 82%
    06:00 -3°C° 0.2 mm 2 mps 706 mmHg 85%
    07:00 -3°C° 0.2 mm 2 mps 705 mmHg 88%
    08:00 -2°C° 1.1 mm 2 mps 705 mmHg 89%
    09:00 -1°C° 1.1 mm 2 mps 705 mmHg 91%
    10:00 +1°C° 1.1 mm 2 mps 704 mmHg 93%
    11:00 +2°C° 0.9 mm 2 mps 704 mmHg 94%
    12:00 +2°C° 0.9 mm 2 mps 704 mmHg 94%
    13:00 +4°C° 0.9 mm 1 mps 703 mmHg 95%
    14:00 +4°C° 0.7 mm 1 mps 703 mmHg 95%
    15:00 +3°C° 0.7 mm 1 mps 703 mmHg 96%
    16:00 +3°C° 0.7 mm 1 mps 704 mmHg 96%
    17:00 +3°C° 0.2 mm 1 mps 704 mmHg 96%
    18:00 +2°C° 0.2 mm 1 mps 704 mmHg 96%
    19:00 +2°C° 0.2 mm 1 mps 705 mmHg 96%
    20:00 +1°C° 0 mm 1 mps 705 mmHg 96%
    21:00 0°C° 0 mm 1 mps 706 mmHg 96%
    22:00 0°C° 0 mm 1 mps 706 mmHg 95%
    23:00 -1°C° 0 mm 1 mps 706 mmHg 94%

    Day after tomorrow, 19 December, Tuesday

    Time Temperature Precipitation Wind Pressure Humidity
    00:00 -1°C° 0 mm 1 mps 707 mmHg 93%
    01:00 -2°C° 0 mm 1 mps 707 mmHg 92%
    02:00 -2°C° 0 mm 1 mps 707 mmHg 92%
    03:00 -2°C° 0 mm 1 mps 708 mmHg 91%
    04:00 -2°C° 0 mm 1 mps 708 mmHg 90%
    05:00 -2°C° 0 mm 1 mps 708 mmHg 91%
    06:00 -2°C° 0 mm 1 mps 709 mmHg 91%
    07:00 -4°C° 0 mm 2 mps 709 mmHg 92%
    08:00 -1°C° 0 mm 1 mps 709 mmHg 91%
    09:00 0°C° 0 mm 1 mps 710 mmHg 91%
    10:00 0°C° 0 mm 1 mps 710 mmHg 91%
    11:00 -1°C° 0 mm 2 mps 710 mmHg 91%
    12:00 +2°C° 0 mm 2 mps 710 mmHg 91%
    13:00 +3°C° 0 mm 2 mps 710 mmHg 91%
    14:00 +2°C° 0 mm 2 mps 710 mmHg 92%
    15:00 +1°C° 0 mm 2 mps 710 mmHg 94%
    16:00 +1°C° 0 mm 2 mps 710 mmHg 96%
    17:00 -1°C° 0 mm 2 mps 710 mmHg 94%
    18:00 -2°C° 0 mm 2 mps 711 mmHg 93%
    19:00 -4°C° 0 mm 2 mps 711 mmHg 92%
    20:00 -4°C° 0 mm 2 mps 711 mmHg 91%
    21:00 -4°C° 0 mm 2 mps 711 mmHg 90%
    22:00 -4°C° 0 mm 2 mps 711 mmHg 88%
    23:00 -3°C° 0 mm 2 mps 711 mmHg 89%

    20 December, Wednesday

    Time Temperature Precipitation Wind Pressure Humidity
    00:00 -3°C° 0 mm 2 mps 711 mmHg 89%
    01:00 -2°C° 0 mm 2 mps 711 mmHg 90%
    02:00 -2°C° 0.1 mm 2 mps 711 mmHg 91%
    03:00 -2°C° 0.1 mm 2 mps 711 mmHg 92%
    04:00 -2°C° 0.1 mm 2 mps 711 mmHg 92%
    05:00 -1°C° 0.3 mm 2 mps 711 mmHg 93%
    06:00 -1°C° 0.3 mm 2 mps 711 mmHg 94%
    07:00 -1°C° 0.3 mm 2 mps 711 mmHg 94%
    08:00 +1°C° 0.3 mm 2 mps 712 mmHg 94%
    09:00 +1°C° 0.3 mm 2 mps 712 mmHg 94%
    10:00 +2°C° 0.3 mm 2 mps 712 mmHg 94%
    11:00 +2°C° 0.2 mm 2 mps 712 mmHg 94%
    12:00 +3°C° 0.2 mm 2 mps 712 mmHg 94%
    13:00 +4°C° 0.2 mm 2 mps 711 mmHg 95%
    14:00 +4°C° 0.2 mm 2 mps 711 mmHg 95%
    15:00 +3°C° 0.2 mm 2 mps 712 mmHg 96%
    16:00 +3°C° 0.2 mm 2 mps 712 mmHg 96%
    17:00 +3°C° 0.2 mm 2 mps 712 mmHg 96%
    18:00 +3°C° 0.2 mm 2 mps 712 mmHg 95%
    19:00 +2°C° 0.2 mm 2 mps 713 mmHg 95%
    20:00 +2°C° 0.1 mm 2 mps 713 mmHg 95%
    21:00 +2°C° 0.1 mm 2 mps 713 mmHg 95%
    22:00 +3°C° 0.1 mm 1 mps 713 mmHg 94%
    23:00 +3°C° 0.1 mm 1 mps 713 mmHg 94%

    21 December, Thursday

    Time Temperature Precipitation Wind Pressure Humidity
    00:00 +3°C° 0.1 mm 1 mps 713 mmHg 94%
    01:00 +3°C° 0.1 mm 1 mps 713 mmHg 94%
    02:00 +3°C° 0.1 mm 1 mps 713 mmHg 94%
    03:00 +3°C° 0.1 mm 1 mps 713 mmHg 94%
    04:00 +2°C° 0.1 mm 2 mps 713 mmHg 94%
    05:00 +3°C° 0.1 mm 2 mps 713 mmHg 94%
    06:00 +3°C° 0.1 mm 2 mps 714 mmHg 94%
    07:00 +3°C° 0.1 mm 2 mps 714 mmHg 94%
    08:00 +3°C° 0 mm 2 mps 714 mmHg 94%
    09:00 +4°C° 0 mm 2 mps 714 mmHg 94%
    10:00 +5°C° 0 mm 2 mps 714 mmHg 94%
    11:00 +5°C° 0 mm 2 mps 714 mmHg 95%
    12:00 +6°C° 0 mm 2 mps 714 mmHg 96%
    13:00 +7°C° 0 mm 2 mps 713 mmHg 97%
    14:00 +6°C° 0.1 mm 2 mps 713 mmHg 97%
    15:00 +6°C° 0.1 mm 2 mps 713 mmHg 97%
    16:00 +6°C° 0.1 mm 2 mps 713 mmHg 96%
    17:00 +5°C° 0.7 mm 2 mps 713 mmHg 96%
    18:00 +5°C° 0.7 mm 2 mps 713 mmHg 96%
    19:00 +5°C° 0.7 mm 2 mps 713 mmHg 96%
    20:00 +5°C° 0.6 mm 2 mps 713 mmHg 96%
    21:00 +5°C° 0.6 mm 2 mps 713 mmHg 96%
    22:00 +5°C° 0.6 mm 2 mps 713 mmHg 96%
    23:00 +5°C° 0.1 mm 2 mps 713 mmHg 96%

    22 December, Friday

    Time Temperature Precipitation Wind Pressure Humidity
    00:00 +5°C° 0.1 mm 2 mps 713 mmHg 96%
    01:00 +5°C° 0.1 mm 2 mps 712 mmHg 95%
    02:00 +4°C° 0.1 mm 3 mps 712 mmHg 95%
    03:00 +4°C° 0.1 mm 3 mps 712 mmHg 95%
    04:00 +4°C° 0.1 mm 3 mps 712 mmHg 95%
    05:00 +3°C° 0.7 mm 3 mps 712 mmHg 96%
    06:00 +3°C° 0.7 mm 3 mps 712 mmHg 96%
    07:00 +3°C° 0.7 mm 3 mps 712 mmHg 96%
    08:00 +4°C° 0.6 mm 2 mps 712 mmHg 96%
    09:00 +4°C° 0.6 mm 2 mps 712 mmHg 97%
    10:00 +4°C° 0.6 mm 2 mps 713 mmHg 97%
    11:00 +5°C° 0.3 mm 2 mps 713 mmHg 96%
    12:00 +5°C° 0.3 mm 2 mps 713 mmHg 95%
    13:00 +4°C° 0.3 mm 3 mps 713 mmHg 94%
    14:00 +4°C° 0.2 mm 2 mps 713 mmHg 94%
    15:00 +4°C° 0.2 mm 2 mps 713 mmHg 95%
    16:00 +3°C° 0.2 mm 2 mps 713 mmHg 95%
    17:00 +2°C° 0.1 mm 2 mps 714 mmHg 95%
    18:00 +2°C° 0.1 mm 2 mps 714 mmHg 95%
    19:00 +1°C° 0.1 mm 2 mps 715 mmHg 96%
    20:00 -1°C° 0 mm 2 mps 715 mmHg 95%
    21:00 -2°C° 0 mm 2 mps 715 mmHg 95%
    22:00 -3°C° 0 mm 2 mps 715 mmHg 94%
    23:00 -4°C° 0 mm 2 mps 715 mmHg 92%
    Show more